Location: Betz
(49.1556°N, 2.9558°E)
Time: 16:44:28
(UTC+00:00)

EO 1 Delta rocket - Pass Details

Date: 18 September 2019
Orbit: 697 x 1792 km, 95.4° (Epoch: 22 October)

Event Time Altitude Azimuth Distance (km) Brightness Sun altitude
Rises 19:13:44 0° 169° (SSE) 4,199 7.5 -13.3°
Reaches altitude 10° 19:16:41 10° 169° (S) 3,073 6.8 -13.8°
Maximum altitude 19:23:32 87° 258° (WSW) 971 4.5 -14.9°
Drops below altitude 10° 19:28:57 10° 350° (N) 2,445 7.0 -15.7°
Sets 19:31:05 0° 350° (N) 3,292 7.7 -16.0°
